Year,Month,Day,Hour,Minute,Value (Times are PST for temperature in C)
2017,01,18,12,13,10.80
2017,01,18,12,14,10.80
2017,01,18,12,15,10.90
2017,01,18,12,16,10.80
2017,01,18,12,17,10.80
2017,01,18,12,18,10.80
2017,01,18,12,19,10.80
2017,01,18,12,20,10.80
2017,01,18,12,21,10.70
2017,01,18,12,22,10.70
2017,01,18,12,23,10.70
2017,01,18,12,24,10.70
2017,01,18,12,25,10.70
2017,01,18,12,26,10.70
2017,01,18,12,27,10.80
2017,01,18,12,28,10.80
2017,01,18,12,29,10.80
2017,01,18,12,30,10.80
2017,01,18,12,31,10.80
2017,01,18,12,32,10.80
2017,01,18,12,33,10.80
2017,01,18,12,34,10.80
2017,01,18,12,35,10.80
2017,01,18,12,36,10.80
2017,01,18,12,37,10.80
2017,01,18,12,38,10.70
2017,01,18,12,39,10.70
2017,01,18,12,40,10.70
2017,01,18,12,41,10.70
2017,01,18,12,42,10.70
2017,01,18,12,43,10.70
2017,01,18,12,44,10.70
2017,01,18,12,45,10.70
2017,01,18,12,46,10.70
2017,01,18,12,47,10.80
2017,01,18,12,48,10.80
2017,01,18,12,49,10.80
2017,01,18,12,50,10.90
2017,01,18,12,51,10.90
2017,01,18,12,52,10.90
2017,01,18,12,53,10.90
2017,01,18,12,54,10.90
2017,01,18,12,55,10.90
2017,01,18,12,56,11.00
2017,01,18,12,57,11.10
2017,01,18,12,58,11.10
2017,01,18,12,59,11.10
2017,01,18,13,00,10.90
2017,01,18,13,01,10.90
2017,01,18,13,02,10.90
2017,01,18,13,03,10.90
2017,01,18,13,04,10.90
2017,01,18,13,05,10.90
2017,01,18,13,06,10.90
2017,01,18,13,07,10.90
2017,01,18,13,08,10.90
2017,01,18,13,09,10.90
2017,01,18,13,10,10.90
2017,01,18,13,11,10.90
2017,01,18,13,12,10.90
2017,01,18,13,13,10.90
2017,01,18,13,14,11.00
2017,01,18,13,15,11.10
2017,01,18,13,16,11.10
2017,01,18,13,17,11.10
2017,01,18,13,18,11.20
2017,01,18,13,19,11.20
2017,01,18,13,20,11.30
2017,01,18,13,21,11.30
2017,01,18,13,22,11.40
2017,01,18,13,23,11.40
2017,01,18,13,24,11.30
2017,01,18,13,25,11.30
2017,01,18,13,26,11.20
2017,01,18,13,27,11.20
2017,01,18,13,28,11.10
2017,01,18,13,29,11.10
2017,01,18,13,30,11.10
2017,01,18,13,31,11.00
2017,01,18,13,32,10.90
2017,01,18,13,33,10.90
2017,01,18,13,34,10.90
2017,01,18,13,35,10.90
2017,01,18,13,36,10.90
2017,01,18,13,37,10.90
2017,01,18,13,38,10.90
2017,01,18,13,39,11.00
2017,01,18,13,40,11.10
2017,01,18,13,41,11.10
2017,01,18,13,42,11.10
2017,01,18,13,43,11.10
2017,01,18,13,44,11.10
2017,01,18,13,45,11.10
2017,01,18,13,46,11.10
2017,01,18,13,47,11.10
2017,01,18,13,48,11.10
2017,01,18,13,49,11.10
2017,01,18,13,50,11.10
2017,01,18,13,51,11.10
2017,01,18,13,52,11.20
2017,01,18,13,53,11.20
2017,01,18,13,54,11.20
2017,01,18,13,55,11.30
2017,01,18,13,56,11.30
2017,01,18,13,57,11.30
2017,01,18,13,58,11.30
2017,01,18,13,59,11.30
2017,01,18,14,00,11.30
2017,01,18,14,01,11.30
2017,01,18,14,02,11.30
2017,01,18,14,03,11.30
2017,01,18,14,04,11.30
2017,01,18,14,05,11.40
2017,01,18,14,06,11.40
2017,01,18,14,07,11.40
2017,01,18,14,08,11.40
2017,01,18,14,09,11.40
2017,01,18,14,10,11.40
2017,01,18,14,11,11.40
2017,01,18,14,12,11.40
2017,01,18,14,13,11.30
2017,01,18,14,14,11.30
2017,01,18,14,15,11.30
2017,01,18,14,16,11.30
2017,01,18,14,17,11.30
2017,01,18,14,18,11.20
2017,01,18,14,19,11.20
2017,01,18,14,20,11.10
2017,01,18,14,21,11.10
2017,01,18,14,22,11.10
2017,01,18,14,23,11.10
2017,01,18,14,24,11.10
2017,01,18,14,25,11.10
2017,01,18,14,26,11.10
2017,01,18,14,27,11.10
2017,01,18,14,28,11.10
2017,01,18,14,29,11.10
2017,01,18,14,30,11.10
2017,01,18,14,31,11.10
2017,01,18,14,32,10.90
2017,01,18,14,33,11.00
2017,01,18,14,34,11.10
2017,01,18,14,35,11.10
2017,01,18,14,36,11.10
2017,01,18,14,37,11.00
2017,01,18,14,38,10.90
2017,01,18,14,39,10.90
2017,01,18,14,40,10.90
2017,01,18,14,41,10.90
2017,01,18,14,42,10.90
2017,01,18,14,43,10.90
2017,01,18,14,44,10.90
2017,01,18,14,45,10.90
2017,01,18,14,46,10.90
2017,01,18,14,47,10.90
2017,01,18,14,48,10.90
2017,01,18,14,49,10.90
2017,01,18,14,50,10.90
2017,01,18,14,51,10.90
2017,01,18,14,52,10.90
2017,01,18,14,53,10.90
2017,01,18,14,54,10.90
2017,01,18,14,55,10.90
2017,01,18,14,56,10.90
2017,01,18,14,57,10.90
2017,01,18,14,58,10.90
2017,01,18,14,59,11.00
2017,01,18,15,00,11.10
2017,01,18,15,01,11.10
2017,01,18,15,02,11.10
2017,01,18,15,03,11.10
2017,01,18,15,04,11.10
2017,01,18,15,05,11.10
2017,01,18,15,06,11.10
2017,01,18,15,07,11.10
2017,01,18,15,08,11.10
2017,01,18,15,09,11.10
2017,01,18,15,10,11.10
2017,01,18,15,11,11.10
2017,01,18,15,12,11.10
2017,01,18,15,13,11.10
2017,01,18,15,14,11.10
2017,01,18,15,15,11.10
2017,01,18,15,16,11.10
2017,01,18,15,17,11.10
2017,01,18,15,18,11.10
2017,01,18,15,19,11.10
2017,01,18,15,20,11.10
2017,01,18,15,21,11.10
2017,01,18,15,22,11.10
2017,01,18,15,23,11.10
2017,01,18,15,24,11.10
2017,01,18,15,25,11.10
2017,01,18,15,26,11.10
2017,01,18,15,27,11.10
2017,01,18,15,28,11.10
2017,01,18,15,29,11.10
2017,01,18,15,30,11.10
2017,01,18,15,31,11.10
2017,01,18,15,32,11.10
2017,01,18,15,33,11.10
2017,01,18,15,34,11.00
2017,01,18,15,35,10.90
2017,01,18,15,36,10.90
2017,01,18,15,37,10.90
2017,01,18,15,38,10.90
2017,01,18,15,39,10.90
2017,01,18,15,40,10.90
2017,01,18,15,41,10.90
2017,01,18,15,42,10.90
2017,01,18,15,43,10.90
2017,01,18,15,44,10.90
2017,01,18,15,45,10.90
2017,01,18,15,46,10.90
2017,01,18,15,47,10.90
2017,01,18,15,48,10.90
2017,01,18,15,49,10.90
2017,01,18,15,50,10.90
2017,01,18,15,51,10.90
2017,01,18,15,52,10.90
2017,01,18,15,53,10.90
2017,01,18,15,54,10.90
